Stations météo

réclame
Mon MeteoGroup
Karesuando, Suède (2080): Température de l'air & dewpoint: 10.12.2017 17:00:00 - 16.12.2017 17:00:00 (CET)Karesuando, Suède (2080): Vitesse du vent & gusts: 10.12.2017 17:00:00 - 16.12.2017 17:00:00 (CET)Karesuando, Suède (2080): Direction du vent: 10.12.2017 17:00:00 - 16.12.2017 17:00:00 (CET)Karesuando, Suède (2080): reduced air pressure: 10.12.2017 17:00:00 - 16.12.2017 17:00:00 (CET)Karesuando, Suède (2080): visibility: 10.12.2017 17:00:00 - 16.12.2017 17:00:00 (CET)Karesuando, Suède (2080): Quantités de précipitations: 10.12.2017 17:00:00 - 16.12.2017 17:00:00 (CET)
Date & Time tt [°C] td [°C] ff [km/h] ff [knt] fx [km/h] fx [knt] dd ppp [hPa] vv [km] rr [mm]
16.12.2017 17:00:00 -9,3 -10,1 7 4 15 8 SSW 1001,4 46 0,0
16.12.2017 16:00:00 -9,0 -9,8 8 4 20 11 SW 1001,2 50 0,0
16.12.2017 15:00:00 -8,3 -9,2 13 7 20 11 SW 1000,8 50 0,0
16.12.2017 14:00:00 -7,6 -8,8 10 6 22 12 SW 1000,4 49 0,0
16.12.2017 13:00:00 -6,8 -8,2 12 6 22 12 WSW 999,9 43 0,0
16.12.2017 12:00:00 -6,3 -7,7 9 5 20 11 SSW 999,7 50 0,0
16.12.2017 11:00:00 -6,1 -7,6 10 6 21 12 SSW 999,5 50 0,0
16.12.2017 10:00:00 -6,0 -7,5 9 5 18 10 SSW 999,3 46 0,0
16.12.2017 09:00:00 -6,1 -7,5 6 3 21 12 SW 998,8 50 0,0
16.12.2017 08:00:00 -6,0 -7,4 9 5 17 9 SSW 998,2 50 0,1
16.12.2017 07:00:00 -5,7 -6,9 10 6 19 11 SSW 997,8 50 0,0
16.12.2017 06:00:00 -5,8 -6,6 7 4 14 8 S 997,4 23 0,0
16.12.2017 05:00:00 -5,7 -6,5 7 4 14 8 S 997,3 40 0,0
16.12.2017 04:00:00 -5,7 -6,6 7 4 15 8 S 997,4 32 0,0
16.12.2017 03:00:00 -5,8 -6,7 5 3 11 6 SSE 997,3 21 0,0
16.12.2017 02:00:00 -5,9 -6,7 4 2 8 4 S 997,2 12 0,0
16.12.2017 01:00:00 -6,1 -6,9 5 3 10 5 ESE 997,2 16 0,0
16.12.2017 00:00:00 -6,2 -7,0 3 2 10 5 ESE 997,3 4,9 0,0
15.12.2017 23:00:00 -5,8 -6,7 6 3 13 7 SE 997,3 32 0,0
15.12.2017 22:00:00 -6,0 -6,9 5 3 14 7 ESE 997,2 42 0,0
15.12.2017 21:00:00 -6,3 -7,1 7 4 12 7 ESE 997,1 23 0,0
15.12.2017 20:00:00 -5,9 -6,8 7 4 15 8 ESE 997,1 14 0,0
15.12.2017 19:00:00 -6,9 -7,2 5 3 9 5 E 997,3 11 0,0
15.12.2017 18:00:00 -10,2 -11,2 2 1 5 3 NE 997,5 13 0,0
15.12.2017 17:00:00 -10,4 -11,6 4 2 8 4 NW 997,7 33 0,1
15.12.2017 16:00:00 -10,6 -11,8 1 0 5 3 WSW 997,6 7 0,0
15.12.2017 15:00:00 -10,7 -11,9 2 1 5 3 WNW 997,7 7 0,0
15.12.2017 14:00:00 -11,2 -12,5 1 1 4 2 SSW 997,5 35 0,1
15.12.2017 13:00:00 -11,7 -12,9 1 1 3 2 W 997,7 5 0,0
15.12.2017 12:00:00 -12,4 -13,7 1 0 3 1 ENE 997,6 7 0,1
15.12.2017 11:00:00 -13,0 -14,4 1 1 6 3 N 997,6 8 0,1
15.12.2017 10:00:00 -13,7 -15,1 3 2 4 2 SW 997,4 3,0 0,2
15.12.2017 09:00:00 -14,3 -15,8 2 1 4 2 S 997,3 3,3 0,1
15.12.2017 08:00:00 -14,6 -16,1 2 1 4 2 WSW 996,8 3,2 0,2
15.12.2017 07:00:00 -15,3 -16,8 1 0 3 1 W 996,4 8 0,1
15.12.2017 06:00:00 -15,6 -17,1 1 1 4 2 W 996,2 9 0,1
15.12.2017 05:00:00 -16,3 -18,0 1 1 4 2 WSW 996,0 10 0,0
15.12.2017 04:00:00 -17,2 -19,0 2 1 4 2 SW 995,6 22 0,0
15.12.2017 03:00:00 -18,2 -20,0 1 1 3 2 WNW 995,6 14 0,2
15.12.2017 02:00:00 -19,2 -21,1 1 1 4 2 W 995,4 7 0,1
15.12.2017 01:00:00 -19,8 -21,7 2 1 5 3 SSE 995,2 4,0 0,0
15.12.2017 00:00:00 -20,0 -22,0 3 2 4 2 NNW 995,1 9 0,0
14.12.2017 23:00:00 -21,1 -23,2 3 1 13 7 N 994,9 35 0,0
14.12.2017 22:00:00 -18,9 -20,7 10 5 14 7 E 994,2 50 0,0
14.12.2017 21:00:00 -18,2 -19,8 8 5 13 7 E 993,7 50 0,1
14.12.2017 20:00:00 -17,8 -19,4 9 5 14 8 E 993,4 39 0,0
14.12.2017 19:00:00 -17,3 -18,8 11 6 19 11 E 992,8 39 0,0
14.12.2017 18:00:00 -16,3 -17,8 11 6 16 9 E 992,1 50 0,0
14.12.2017 17:00:00 -15,4 -16,8 11 6 16 9 E 991,7 13 0,0
14.12.2017 16:00:00 -14,0 -15,3 6 3 13 7 E 991,0 44 0,1
14.12.2017 15:00:00 -10,7 -11,6 4 2 14 8 S 989,8 50 0,0
14.12.2017 14:00:00 -10,5 -11,8 7 4 20 11 SSW 989,0 50 0,0
14.12.2017 13:00:00 -8,8 -9,9 8 5 16 9 SSW 988,2 50 0,0
14.12.2017 12:00:00 -9,4 -10,6 9 5 14 8 SSW 987,8 50 0,0
14.12.2017 11:00:00 -8,9 -10,1 8 4 14 8 SSW 987,1 50 0,0
14.12.2017 10:00:00 -8,4 -9,7 11 6 17 9 SSW 986,1 50 0,0
14.12.2017 09:00:00 -7,7 -9,2 11 6 16 9 SSW 985,0 50 0,0
14.12.2017 08:00:00 -7,3 -8,9 9 5 17 9 S 983,8 50 0,0
14.12.2017 07:00:00 -7,4 -8,9 11 6 20 11 SSW 983,0 50 0,0
14.12.2017 06:00:00 -7,6 -9,4 14 7 22 12 SSW 982,4 50 0,0
14.12.2017 05:00:00 -7,7 -9,6 15 8 24 13 SSW 981,5 48 0,0
14.12.2017 04:00:00 -6,3 -8,4 13 7 23 12 S 980,7 50 0,0
14.12.2017 03:00:00 -6,1 -8,2 16 9 24 13 SSW 979,8 50 0,0
14.12.2017 02:00:00 -6,1 -8,1 14 7 22 12 SSW 979,2 50 0,0
14.12.2017 01:00:00 -5,5 -7,6 14 7 22 12 SSW 978,5 50 0,0
14.12.2017 00:00:00 -5,0 -7,1 13 7 22 12 SW 977,9 50 0,0
13.12.2017 23:00:00 -3,9 -6,4 10 6 29 15 WSW 977,2 50 0,0
13.12.2017 22:00:00 -3,9 -6,0 16 9 34 18 W 976,4 50 0,0
13.12.2017 21:00:00 -3,8 -5,9 17 9 28 15 W 976,0 50 0,0
13.12.2017 20:00:00 -3,9 -6,0 15 8 26 14 WSW 976,1 50 0,0
13.12.2017 19:00:00 -4,3 -6,4 16 9 23 12 WSW 976,1 50 0,0
13.12.2017 18:00:00 -5,0 -6,5 13 7 28 15 WSW 976,2 50 0,0
13.12.2017 17:00:00 -5,3 -6,7 16 9 30 16 W 976,3 47 0,0
13.12.2017 16:00:00 -6,0 -7,1 14 8 27 14 W 976,6 45 0,0
13.12.2017 15:00:00 -6,7 -7,8 12 7 21 11 WSW 976,8 47 0,0
13.12.2017 14:00:00 -6,6 -7,5 10 5 20 11 W 977,0 31 0,1
13.12.2017 13:00:00 -5,9 -6,7 14 7 29 16 WNW 977,2 3,2 0,2
13.12.2017 12:00:00 -6,1 -6,9 18 10 29 16 NW 977,7 2,4 0,0
13.12.2017 11:00:00 -6,3 -7,2 17 9 28 15 NW 978,3 6 0,1
13.12.2017 10:00:00 -6,5 -7,6 19 11 35 19 NW 978,7 - 0,0
13.12.2017 09:00:00 -6,6 -7,7 22 12 35 19 NNW 979,1 14 0,0
13.12.2017 08:00:00 -6,7 -7,8 21 11 32 17 NNW 979,7 49 0,1
13.12.2017 07:00:00 -6,7 -7,6 21 11 35 19 NNW 980,6 2,8 0,1
13.12.2017 06:00:00 -6,8 -7,7 19 10 28 15 NNW 981,8 2,1 0,1
13.12.2017 05:00:00 -6,7 -7,6 15 8 26 14 NNW 982,9 3,6 0,1
13.12.2017 04:00:00 -6,7 -7,6 15 8 23 13 N 984,0 2,3 0,2
13.12.2017 03:00:00 -6,8 -7,7 14 7 23 12 N 985,2 3,0 0,1
13.12.2017 02:00:00 -6,7 -7,5 14 8 26 14 N 986,3 2,6 0,3
13.12.2017 01:00:00 -6,6 -7,4 13 7 23 13 N 988,1 2,5 0,1
13.12.2017 00:00:00 -7,2 -7,9 11 6 18 10 NNW 989,6 4,8 0,1
12.12.2017 23:00:00 -7,3 -8,1 9 5 19 11 N 991,2 50 0,0
12.12.2017 22:00:00 -6,9 -7,6 10 6 19 11 NNE 992,4 48 0,0
12.12.2017 21:00:00 -7,2 -7,7 3 2 10 5 NE 993,6 37 0,0
12.12.2017 20:00:00 -7,0 -7,5 5 3 11 6 ENE 994,7 50 0,0
12.12.2017 19:00:00 -6,6 -7,3 6 3 11 6 E 995,8 8 0,1
12.12.2017 18:00:00 -6,4 -6,9 6 3 12 6 ESE 996,6 11 0,0
12.12.2017 17:00:00 -6,0 -6,9 5 3 10 6 E 997,2 33 0,0
12.12.2017 16:00:00 -4,5 -5,7 4 2 12 6 SE 997,6 50 0,0
12.12.2017 15:00:00 -4,2 -5,6 7 4 21 11 SE 998,0 50 0,0
12.12.2017 14:00:00 -4,0 -4,8 7 4 15 8 SE 998,7 50 0,0
12.12.2017 13:00:00 -3,7 -4,8 9 5 15 8 SSE 999,0 50 0,0
12.12.2017 12:00:00 -4,9 -5,6 6 4 12 6 ENE 999,8 41 0,0
12.12.2017 11:00:00 -3,9 -4,9 8 4 16 9 SSE 1000,3 50 0,0
12.12.2017 10:00:00 -3,7 -4,5 6 4 19 11 S 1000,7 11 0,0
12.12.2017 09:00:00 -3,2 -4,3 8 4 16 9 SSE 1000,8 50 0,0
12.12.2017 08:00:00 -3,2 -4,0 6 4 17 9 SE 1001,0 42 0,0
12.12.2017 07:00:00 -4,1 -4,5 5 3 13 7 ESE 1001,4 12 0,0
12.12.2017 06:00:00 -4,6 -5,3 5 3 10 5 ENE 1001,7 47 0,0
12.12.2017 05:00:00 -6,3 -7,0 5 3 9 5 E 1002,0 35 0,0
12.12.2017 04:00:00 -6,0 -6,5 5 3 8 4 NE 1002,4 50 0,0
12.12.2017 03:00:00 -7,3 -8,0 5 3 9 5 N 1002,9 50 0,0
12.12.2017 02:00:00 -6,9 -7,6 8 4 14 8 E 1002,6 50 0,0
12.12.2017 01:00:00 -4,3 -5,8 8 5 18 10 SE 1002,4 50 0,0
12.12.2017 00:00:00 -4,2 -5,2 7 4 18 10 S 1002,2 50 0,0
11.12.2017 23:00:00 -3,2 -4,2 10 5 20 11 S 1002,3 46 0,0
11.12.2017 22:00:00 -3,4 -4,5 8 5 19 10 SSE 1002,0 48 0,0
11.12.2017 21:00:00 -3,4 -4,2 8 4 23 12 S 1002,0 50 0,0
11.12.2017 20:00:00 -3,9 -4,3 7 4 18 10 SSW 1001,7 43 0,0
11.12.2017 19:00:00 -4,3 -5,1 6 3 24 13 S 1001,4 50 0,0
11.12.2017 18:00:00 -3,3 -4,1 15 8 32 17 SSW 1000,8 50 0,0
11.12.2017 17:00:00 -3,3 -4,1 14 7 29 16 SSW 1000,5 49 0,0
11.12.2017 16:00:00 -3,8 -4,6 7 4 16 8 SSW 999,9 50 0,0
11.12.2017 15:00:00 -3,8 -4,5 9 5 19 10 S 999,5 50 0,0
11.12.2017 14:00:00 -4,7 -5,2 4 2 8 4 E 999,4 18 0,0
11.12.2017 13:00:00 -4,8 -5,3 1 1 8 5 E 999,3 29 0,0
11.12.2017 12:00:00 -4,9 -5,4 3 2 12 6 S 999,3 24 0,0
11.12.2017 11:00:00 -5,2 -5,7 7 4 18 10 SW 999,1 46 0,0
11.12.2017 10:00:00 -5,4 -5,8 9 5 18 10 S 998,7 39 0,0
11.12.2017 09:00:00 -5,7 -6,1 10 6 20 11 S 998,4 49 0,0
11.12.2017 08:00:00 -5,3 -5,8 7 4 10 5 SSW 997,7 49 0,0
11.12.2017 07:00:00 -4,8 -5,3 3 1 6 4 S 997,0 42 0,0
11.12.2017 06:00:00 -4,5 -4,9 5 3 6 3 S 996,8 4,3 0,1
11.12.2017 05:00:00 -4,1 -4,5 3 1 4 2 WNW 996,8 2,0 0,1
11.12.2017 04:00:00 -4,0 -4,4 3 1 5 3 NW 996,9 4,2 0,0
11.12.2017 03:00:00 -3,9 -4,3 3 2 7 4 N 997,1 1,8 0,2
11.12.2017 02:00:00 -3,9 -4,2 4 2 8 4 NE 997,4 3,2 0,1
11.12.2017 01:00:00 -4,2 -4,7 4 2 10 5 ENE 997,8 11 0,0
11.12.2017 00:00:00 -4,2 -5,2 5 3 9 5 ENE 998,3 47 0,0
10.12.2017 23:00:00 -3,9 -4,9 4 2 11 6 ENE 998,7 20 0,0
10.12.2017 22:00:00 -3,5 -4,5 8 4 21 12 ESE 999,1 48 0,0
10.12.2017 21:00:00 -3,1 -3,8 10 5 25 13 ESE 999,0 20 0,0
10.12.2017 20:00:00 -2,6 -3,0 13 7 25 13 ESE 998,9 10 0,0
10.12.2017 19:00:00 -2,5 -2,9 11 6 28 15 SE 998,8 14 0,0
10.12.2017 18:00:00 -2,3 -2,6 11 6 25 14 ESE 998,4 15 0,0
10.12.2017 17:00:00 -2,2 -2,5 10 6 31 17 ESE 998,2 14 0,0

tt = Température de l'air
td = dewpoint
ff = Vitesse du vent
fx = gusts
dd = Direction du vent
ppp = reduced air pressure
vv = visibility
rr = Quantités de précipitations

stations d'obs. à proximité